Content
SEND FEEDBACK

Daily
Averages
Monthly
Summary
United States of America

BARTON HILLS, MICHIGAN


Home > North America > United States > Michigan
Elevation: 899 feet     Latitude: 42 18N     Longitude: 083 43W

WEATHER
 
SELECT A DAY
Number of Records: 203,295;   Date Range: 1/1/95 - 7/26/14
 
SHARE

PRINT THIS DATA

[ ← Previous Day ]
WEATHER ALMANAC - SEPTEMBER 28, 2013
[ Next Day → ]
[ °C ]   °F
Weather ElementAverageHighLow
Temperature55.5 °F75.9 °F (2:53 pm)44.6 °F (3:46 am)
Dewpoint51.2 °F60.8 °F (10:09 am)44.6 °F (3:46 am)
Humidity88.2 %100 % (12:05 am)42 % (2:53 pm)
Barometer30.16 in30.21 in (8:53 am)30.02 in (11:53 pm)
Wind Speed2.5 mph10.4 mph (3:53 pm)
Wind Gust19.6 mph (4:53 pm)
Weather ElementAverage
Visibility4.2 mi
Wind DirectionNE (49.6 °)

Weather ElementTotal
Precipitation0.01 in
Heating Degree Days4.8 (Base 65)
Growing Degree Days10.3 (Base 50)
Averaged from 49 records on September 28, 2013
WEATHER CONDITIONS BREAKOUT
WIND DIRECTION BREAKOUT
WEATHER BY HOUR - SEPTEMBER 28, 2013
[ °C ]   °F
Local TimeTemperatureDewpointHumidityBarometerVisibilityWind DirectionWind SpeedGust SpeedPrecipitationEventsConditions
12:05 AM46.4 °F46.4 °F100 %30.19 in3.0 miCalmClear
12:09 AM46.4 °F46.4 °F100 %30.19 in1.5 miCalmClear
12:13 AM46.4 °F46.4 °F100 %30.19 in0.8 miCalmClear
12:34 AM46.4 °F46.4 °F100 %30.19 in2.0 miCalmClear
12:41 AM46.4 °F46.4 °F100 %30.19 in10.0 miENE (70°)3.5 mphClear
12:53 AM46.9 °F46.0 °F97 %30.19 in1.8 miENE (70°)3.5 mphClear
1:00 AM48.2 °F48.2 °F100 %30.19 in1.0 miEast (80°)3.5 mphClear
1:04 AM48.2 °F48.2 °F100 %30.19 in4.0 miEast (80°)3.5 mphClear
1:53 AM50.0 °F50.0 °F100 %30.18 in8.0 miEast (90°)3.5 mphClear
2:19 AM51.8 °F50.0 °F94 %30.19 in1.5 miCalmClear
2:22 AM51.8 °F50.0 °F94 %30.19 in0.8 miCalmClear
2:53 AM50.0 °F48.9 °F96 %30.18 in0.2 miCalmFogFog
3:06 AM48.2 °F48.2 °F100 %30.18 in0.5 miCalmFogFog
3:20 AM50.0 °F50.0 °F100 %30.18 in1.0 miCalmClear
3:26 AM48.2 °F48.2 °F100 %30.18 in0.8 miCalmMist
3:40 AM46.4 °F46.4 °F100 %30.18 in1.2 miCalmClear
3:42 AM46.4 °F46.4 °F100 %30.18 in3.0 miCalmClear
3:46 AM44.6 °F44.6 °F100 %30.18 in1.5 miCalmClear
3:48 AM44.6 °F44.6 °F100 %30.18 in0.8 miCalmClear
3:53 AM46.0 °F46.0 °F100 %30.18 in0.2 miNorth (10°)3.5 mphFogFog
4:03 AM46.4 °F46.4 °F100 %30.18 in0.5 miNNE (30°)3.5 mphFogFog
4:08 AM46.4 °F46.4 °F100 %30.18 in1.2 miNE (50°)3.5 mphPartly Cloudy
4:10 AM48.2 °F46.4 °F93 %30.18 in2.5 miENE (60°)3.5 mphPartly Cloudy
4:17 AM50.0 °F50.0 °F100 %30.18 in1.2 miCalmPartly Cloudy
4:23 AM50.0 °F50.0 °F100 %30.18 in0.8 miNE (40°)3.5 mphMist
4:40 AM50.0 °F48.2 °F94 %30.18 in0.2 miCalmFogFog
4:53 AM48.9 °F48.0 °F97 %30.18 in0.2 miCalmFogFog
5:53 AM51.1 °F51.1 °F100 %30.19 in0.2 miCalmFogFog
6:53 AM55.0 °F54.0 °F96 %30.19 in0.2 miCalmFogFog
7:53 AM55.9 °F55.9 °F100 %30.20 in0.2 miCalm0.01 inFogFog
8:53 AM57.0 °F57.0 °F100 %30.21 in0.2 miCalmFogFog
9:45 AM60.8 °F59.0 °F94 %30.20 in1.8 miCalmOvercast
9:48 AM60.8 °F59.0 °F94 %30.20 in3.0 miCalmMostly Cloudy
9:53 AM60.1 °F59.0 °F96 %30.20 in4.0 miCalmOvercast
10:09 AM60.8 °F60.8 °F100 %30.20 in8.0 miESE (120°)3.5 mphClear
10:53 AM66.0 °F57.0 °F73 %30.21 in10.0 miSSE (160°)3.5 mphClear
11:53 AM70.0 °F55.9 °F61 %30.19 in10.0 miSE (130°)4.6 mphClear
12:53 PM73.0 °F54.0 °F51 %30.17 in10.0 miSSE (160°)9.2 mphClear
1:53 PM75.0 °F53.1 °F46 %30.14 in10.0 miSouth (170°)6.9 mphClear
2:53 PM75.9 °F51.1 °F42 %30.10 in10.0 miVariable3.5 mphClear
3:53 PM75.0 °F53.1 °F46 %30.09 in10.0 miSSE (150°)10.4 mphClear
4:53 PM75.0 °F55.0 °F50 %30.07 in10.0 miSSE (160°)9.2 mph19.6 mphClear
5:53 PM73.0 °F54.0 °F51 %30.06 in10.0 miSE (140°)6.9 mphClear
6:53 PM68.0 °F54.0 °F61 %30.06 in10.0 miSE (130°)8.1 mphClear
7:53 PM64.9 °F55.9 °F73 %30.06 in10.0 miSE (130°)5.8 mphClear
8:53 PM63.0 °F55.9 °F78 %30.06 in10.0 miSE (130°)5.8 mphClear
9:53 PM62.1 °F57.0 °F84 %30.05 in10.0 miSE (130°)4.6 mphClear
10:53 PM62.1 °F57.0 °F84 %30.03 in10.0 miSE (140°)4.6 mphClear
11:53 PM62.1 °F55.0 °F78 %30.02 in10.0 miCalmClear
Hourly data recorded from KARB, located miles away from Barton Hills, Michigan







STORIES FROM OUR PARTNERS